This is the latest recevied weather packets stored in our database for station/object KB4NWJ. If no packets are shown the sender has not sent any weather packets the latest 10 day(s).
| Time | Temp. | Humidity | Pressure | Rain* | Wind** | Luminosity | Snow |
|---|---|---|---|---|---|---|---|
| 1777834686 | 20.56° C | 46% | 1020.5 hPa | 0 mm | - | 670 W/m² | - |
| 1777834382 | 20° C | 44% | 1020.5 hPa | 0 mm | - | 702 W/m² | - |
| 1777834081 | 20° C | 44% | 1020.6 hPa | 0 mm | - | 680 W/m² | - |
| 1777833778 | 20.56° C | 44% | 1020.7 hPa | 0 mm | - | 658 W/m² | - |
| 1777833474 | 20° C | 46% | 1020.8 hPa | 0 mm | - | 641 W/m² | - |
| 1777833172 | 20° C | 43% | 1020.6 hPa | 0 mm | - | 665 W/m² | - |
| 1777832869 | 20° C | 42% | 1020.7 hPa | 0 mm | - | 691 W/m² | - |
| 1777832568 | 19.44° C | 47% | 1021 hPa | 0 mm | - | 713 W/m² | - |
| 1777832264 | 19.44° C | 43% | 1021 hPa | 0 mm | - | 736 W/m² | - |
| 1777831962 | 19.44° C | 46% | 1021.2 hPa | 0 mm | - | 737 W/m² | - |
| 1777831658 | 20° C | 43% | 1021.3 hPa | 0 mm | - | 724 W/m² | - |
| 1777831356 | 20° C | 44% | 1021.3 hPa | 0 mm | - | 712 W/m² | - |
| 1777831052 | 20° C | 40% | 1021.4 hPa | 0 mm | - | 721 W/m² | - |
| 1777830751 | 20° C | 45% | 1021.5 hPa | 0 mm | - | 601 W/m² | - |
| 1777830446 | 19.44° C | 44% | 1021.5 hPa | 0 mm | - | 573 W/m² | - |
| 1777830145 | 18.89° C | 41% | 1021.5 hPa | 0 mm | - | 588 W/m² | - |
| 1777829845 | 18.89° C | 44% | 1021.4 hPa | 0 mm | - | 667 W/m² | - |
| 1777829541 | 18.89° C | 45% | 1021.5 hPa | 0 mm | - | 730 W/m² | - |
| 1777829238 | 19.44° C | 48% | 1021.5 hPa | 0 mm | - | 674 W/m² | - |
| 1777828935 | 18.89° C | 53% | 1021.4 hPa | 0 mm | - | 633 W/m² | - |
| 1777828631 | 18.89° C | 50% | 1021.6 hPa | 0 mm | - | 672 W/m² | - |
| 1777828329 | 18.89° C | 47% | 1021.7 hPa | 0 mm | - | 712 W/m² | - |
| 1777828025 | 18.89° C | 48% | 1021.4 hPa | 0 mm | - | 684 W/m² | - |
| 1777827723 | 18.33° C | 49% | 1021.7 hPa | 0 mm | - | 674 W/m² | - |
| 1777827420 | 17.78° C | 48% | 1021.7 hPa | 0 mm | - | 668 W/m² | - |
* Rain latest hour (hover to see other rain measurements)
** Current wind speed in m/s (hover to see current wind gust speed)